Location: Marineo
(37.9500°N, 13.4170°E)
Time: 21:44:40
(UTC+01:00)

ISS - Pass Details

Date: 24 January 2019
Orbit: 403 x 411 km, 51.6° (Epoch: 20 February)

Event Time Altitude Azimuth Distance (km) Brightness Sun altitude
Rises 19:17:11 0° 267° (W) 2,327 1.5 -23.0°
Reaches altitude 10° 19:19:40 10° 286° (WNW) 1,471 -0.1 -23.5°
Enters shadow 19:21:51 19° 327° (NNW) 1,054 -1.5 -23.9°
